{"data":{"norad_id":56408,"epoch":"2026-09-20T01:16:34.736448Z","epoch_age_seconds":150580,"freshness":"FRESH","line1":"1 56408U 23061AL  26263.05317982 -.00000186  00000+0  27452-5 0  9999","line2":"2 56408  43.0032 169.0504 0000983 266.9801  93.0939 15.27574337186602","mean_motion":15.27574337,"eccentricity":9.83e-5,"inclination_deg":43.0032,"raan_deg":169.0504,"arg_perigee_deg":266.9801,"mean_anomaly_deg":93.0939,"bstar":2.7452e-6,"rev_number":18660,"period_min":94.267098177887,"perigee_km":482.39159689117,"apogee_km":483.74050941142,"semimajor_km":6861.2030531513,"source":"CELESTRAK","updated_at":"2026-09-21T09:00:33.436280Z"}}